Regional Weather Roundup
Issued by NWS Grand Forks, ND

Home | Current Version | Previous Version | Graphics & Text | Print | Product List | Glossary On
Versions: 1 2 3 4 5 6 7 8 9 10 11 12 13 14 15 16 17 18 19 20 21 22 23 24 25 26 27 28 29 30 31 32 33 34 35 36 37 38 39 40 41 42 43 44 45 46 47 48 49 50
000
ASUS43 KFGF 280210
RWRFGF
PRAIRIE TO PINES  WEATHER ROUNDUP
NATIONAL WEATHER SERVICE EASTERN NORTH DAKOTA/GRAND FORKS ND
800 PM CST MON FEB 27 2017

 **SATELLITE DATA USED TO AUGMENT SKY COVER AT AUTOMATED STATIONS**
 *****  WEATHER ACROSS EASTERN NORTH DAKOTA  *****

CITY           SKY/WX    TMP DP  RH WIND       PRES   REMARKS
GRAND FORKS    CLOUDY    19  10  68 N15       29.91S WCI   5
GRAND FRKS AFB CLOUDY    17  12  82 N13       29.92S WCI   3
DEVILS LAKE    FLURRIES  12  10  92 N7        29.89S WCI   1
FARGO          FAIR      28  21  75 N16       29.84R WCI  16
WAHPETON ARPT    N/A     32  27  80 N9        29.79R WCI  24
$$

 ***** WEATHER ACROSS CENTRAL AND WESTERN NORTH DAKOTA  *****

CITY           SKY/WX    TMP DP  RH WIND       PRES   REMARKS
BISMARCK       CLOUDY    21  16  81 NE9       29.84R WCI  11
MINOT          CLOUDY     5   1  83 N3        29.87R
JAMESTOWN      CLOUDY    24  19  81 NE13      29.82S WCI  12
MINOT AFB      CLEAR      6   1  80 N3        29.88R
GARRISON         N/A     -1  -5  82 NE5       29.86R WCI -11
WILLISTON      FAIR      10   5  80 E5        29.84S WCI   2
DICKINSON      CLOUDY    15  12  88 E10       29.76R WCI   2
HETTINGER      CLOUDY    20  16  84 NE14      29.75R WCI   7
$$

 *****  OTHER AIRPORT OBSERVATIONS IN OUR AREA  *****

CITY           SKY/WX    TMP DP  RH WIND       PRES   REMARKS
WALHALLA       NOT AVBL
GRAFTON AIRPOR LGT SNOW  14  12  92 N10       29.96F WCI   1
VALLEY CITY AR CLOUDY    23  23 100 NE14      29.86R WCI  11
CANDO          NOT AVBL
CAVALIER APRT  FLURRIES  14   9  79 N9        29.96S WCI   2
GWINNER        FAIR      30  27  86 N18       29.81R WCI  18
SHEYENNE NWR     N/A     27  21  79 NE14      29.95S WCI  16
ROLLA          FLURRIES  10   9  92 NE7       29.88S WCI   0
 ***** THE ABOVE OBSERVATIONS ARE NON NWS ARE NOT QUALITY
       CONTROLLED AND MAY MIS-REPORT RAIN FOR SNOW...
$$

  *****  WEATHER ACROSS NORTHERN MINNESOTA  *****

CITY           SKY/WX    TMP DP  RH WIND       PRES   REMARKS
FLAG ISLAND    FLURRIES  19  16  86 N8        29.91R WCI   9
WARROAD        LGT SNOW  21  18  86 NW5       29.92R WCI  15
ROSEAU         LGT SNOW  21  18  86 NW5       29.92R WCI  15
HALLOCK        CLOUDY    16  12  86 N7        29.95S WCI   6
THF RVR FALLS  NOT AVBL
BAUDETTE       CLOUDY    22  14  71 N8        29.89R WCI  12
WASKISH        CLOUDY    27  14  59 CALM      29.88R
CROOKSTON      CLOUDY    21  19  93 N14       29.90F WCI   8
GREENBUSH NDAW   N/A     18  16  93 N7          N/A  WCI   8
$$
  *****  WEATHER ACROSS CENTRAL AND WEST MINNESOTA  *****

CITY           SKY/WX    TMP DP  RH WIND       PRES   REMARKS
FOSSTON        CLOUDY    23  16  74 N10       29.86R WCI  12
BEMIDJI        CLOUDY    28  17  66 N7        29.83S WCI  20
PARK RAPIDS    CLOUDY    32  22  66 E5        29.79S
ELBOW LAKE     CLOUDY    33  29  85 NW3       29.77R
WADENA         FAIR      30  23  74 E6        29.77F WCI  24
DETROIT LAKES  FAIR      32  27  80 N3        29.80S
MOORHEAD       FAIR      28  21  74 N16       29.83F WCI  17
FERGUS FALLS   FAIR      34  25  69 E3        29.81S
MORRIS MN      FAIR      34  28  80 S9        29.76R
STAPLES        MOCLDY    28  21  74 E3        29.79F
$$
  *****  WEATHER ELSEWHERE ACROSS MINNESOTA  *****

CITY           SKY/WX    TMP DP  RH WIND       PRES   REMARKS
DULUTH         FAIR      26  24  92 E10       29.87R WCI  16
INTRNTL FALLS  CLOUDY    25   9  50 NE5       29.88R WCI  19
ELY            CLOUDY    27  18  69 CALM      29.87S
CLOQUET        CLOUDY    27  23  86 E6        29.86F WCI  20
WHEATON        CLOUDY    34  28  80 NW5       29.79R
BRAINERD       FAIR      27  23  85 CALM      29.81S
HIBBING        CLOUDY    28  22  78 SE5       29.84S WCI  23
ALEXANDRIA     CLOUDY    36  28  73 S10       29.78S
SAINT CLOUD    CLOUDY    37  24  59 S15       29.82S
MINNEAPOLIS    CLOUDY    37  24  59 SE8       29.88F
$$

  *****  WEATHER ACROSS SOUTH DAKOTA  *****

CITY           SKY/WX    TMP DP  RH WIND       PRES   REMARKS
SIOUX FALLS    CLOUDY    38  31  76 E6        29.76S
BROOKINGS      CLOUDY    38  28  67 S15       29.74S
WATERTOWN      FAIR      34  26  72 SE7       29.74R
HURON          FAIR      35  27  72 SE8       29.72R
SISSETON         N/A     32  31  96 N12       29.77R WCI  23
ABERDEEN       FLURRIES  31  26  82 N12       29.78R WCI  22
MITCHELL       FAIR      35  29  78 SE9       29.72F
PIERRE         CLOUDY    37  27  67 NE13      29.70R
MOBRIDGE       FAIR      29  22  75 NE18      29.72R WCI  16
RAPID CITY     FAIR      32  18  56 NE9       29.65R WCI  24
$$

  *****  SOME WEATHER IN NEARBY STATES *****

CITY           SKY/WX    TMP DP  RH WIND       PRES   REMARKS
GLASGOW MT     CLOUDY    15  10  80 E12       29.77R WCI   2
GREAT FALLS MT FAIR      14   9  80 S7        29.56R WCI   4
CHEYENNE WY    CLOUDY    28  21  75 NW15G22   29.61R WCI  16
SCOTTSBLUFF NE FAIR      33  27  78 N9        29.64R
OMAHA NE       FAIR      45  29  53 SE7       29.75S
DES MOINES IA  CLOUDY    52  28  39 E10       29.82F
DAVENPORT IA   CLOUDY    47  32  56 E9        29.95F
CHICAGO IL     CLOUDY    45  34  65 SE9       30.06S
EAU CLAIRE WI  CLOUDY    37  21  52 SE8       29.92F
LA CROSSE WI   MOCLDY    42  31  64 E8        29.93F
$$

  *****  SOME NATIONAL WEATHER *****

CITY           SKY/WX    TMP DP  RH WIND       PRES   REMARKS
LA GUARDIA NY  MOCLDY    51  29  42 SW6       30.39S
RALEIGH NC     CLOUDY    57  33  40 CALM      30.36R
ATLANTA GA     MOCLDY    52  49  89 E8        30.26S
NEW ORLEANS LA CLOUDY    73  69  87 SE13      30.12R
OKLAHOMA CITY  FAIR      60  58  92 S20       29.81R FOG
ALBUQUERQUE NM MOCLDY    55  19  24 W22G28    29.85R
SALT LAKE CITY MOCLDY    31  25  78 E7        29.80R WCI  24
LOS ANGELES CA MOCLDY    55  48  77 W12       29.84S
BOISE ID       FLURRIES  31  27  85 SE8       29.79R WCI  23
SEATTLE WA     LGT SNOW  35  33  92 VRB3      29.71R FOG
$$

*** WEATHER ACROSS MANITOBA...SASKATCHEWAN AND ONTARIO ***
                ***ONTARIO***

CITY           SKY/WX    TMP DP  RH WIND       PRES   REMARKS
GERALDTON      PTCLDY    18  10  73 S5        29.93S WCI  11
THUNDER BAY    MOCLDY    23  19  86 N2        29.96F
SIOUX LOOKOUT  PTCLDY    21   9  58 SW7       29.87S WCI  13
TORONTO        PTCLDY    41  19  42 W2        30.24F
BIG TROUT LK   CLEAR     -8 -13  77 SW2       29.90S
PICKLE LAKE    LGT SNOW  16  12  86 NW8       29.85R DRFTSNOWWCI   5
DRYDEN         PTCLDY    19  10  68 SW7       29.87S WCI  10
KENORA         FLURRIES  16  10  79 N7        29.90R WCI   6
$$
                *** MANITOBA***

CITY           SKY/WX    TMP DP  RH WIND       PRES   REMARKS
BRANDON        PTCLDY    -4 -11  71 W6        29.94R WCI -16
DAUPHIN        CLEAR      5  -4  66 SW8       29.94R WCI  -8
ISLAND LAKE    CLEAR     -8 -15  71 SE3       29.94R
PILOT MOUND      N/A      9   5  85 E3          N/A
THE PAS        FLURRIES   5  -6  61 E3        29.89R
THOMPSON       CRYSTALS -20 -27  69 NE2       29.94R
WINNIPEG       PTCLDY    10   5  79 NE6       29.98R WCI   1
LYNN LAKE      CLEAR    -17 -22  76 NW6       29.87R WCI -31
CHURCHILL      CRYSTALS -22 -27  76 NW14      29.94R WCI -47
GILLAM         CLEAR    -18 -27  63 W8        29.94R WCI -37
$$
                ***SASKATCHEWAN***

CITY           SKY/WX    TMP DP  RH WIND       PRES   REMARKS
ESTEVAN        CLEAR      3  -2  78 E5        29.87R WCI  -6
KINDERSLEY     PTCLDY    10   1  67 SE8       29.71R WCI  -1
LLOYDMINSTER   PTCLDY    10   5  79 SW8       29.69R WCI  -1
PRINCE ALBERT  PTCLDY    12   3  67 SW6       29.77R WCI   3
REGINA         CLEAR      5  -2  72 SE10      29.83S WCI -10
YORKTON        CLEAR      3  -4  72 S5        29.87R WCI  -6
N. BATTLEFORD  CLEAR     10   3  72 S5        29.76R WCI   2
LA RONGE       CLEAR     -9 -15  77 NE2       29.83R
SASKATOON      PTCLDY    12   0  57 SW6       29.79S WCI   3
SWIFT CURRENT  MOCLDY     7   1  78 SE9       29.69R WCI  -7
$$
NOTE: THESE ARE AUTOMATED STATIONS WITH LIMITED QUALITY CONTROL
      "FAIR" INDICATES FEW OR NO CLOUDS BELOW 12,000 FEET WITH NO
      SIGNIFICANT WEATHER AND/OR OBSTRUCTIONS TO VISIBILITY.
      SKY/WX - SKY CONDITION AND SIGNIFICANT WEATHER.
      TMP - AIR TEMPERATURE.    DP   - DEWPOINT TEMPERATURE.
      RH  - RELATIVE HUMIDITY.  PRES - PRESSURE.
      HX  - HEAT INDEX.         WCI  - WIND CHILL INDEX.
$




USA.gov is the U.S. government's official web portal to all federal, state and local government web resources and services.